Showing default

COSMOS 2214, 22185

Orbit data source: Space-Track

COSMOS 2214, 22185 is a payload satellite owned by VKS (CIS) in LEO that was launched on Tue, 20 Oct 1992 UTC via a TSIKLON-3 launch vehicle from the Plesetsk Missile And Space Complex (PKMTR). Payload-class satellites include a variety of spacecraft equipped with specific instruments for various scientific and technological missions. These include communications satellites like Starlink; space stations such as the ISS; scientific satellites like the Hubble; Earth observation satellites from companies like Planet Labs, Umbra, and HawkEye 360; GPS; miniature CubeSats for education and research; and military/defense satellites.

Loading next visibility...
Identifier
22185, 1992-068D
Orbit
LEO
Country
Flag of CISCIS
Related business
Manufacturer
NPO PM
Mission
Defense Communications
Bus & Motor
STRELA-3, Unknown motor
Mass
225 kg wet, 225 kg dry
Launch date (UTC)
1992-10-20 (34 years ago)
Launch vehicle
TSIKLON-3
Launch site
Plesetsk Missile And Space Complex (PKMTR)
Object type
Payload
Rocket body
Debris
Shape & HBR
Cyl, 0.8 m
Radar Cross Section
1.257 m², Large (>1 m²)

Expand to show TLE details & history
Last TLE update: 5 hours ago

TLE from 5 hours ago
0 COSMOS 2214
1 22185U 92068D   26129.99004240  .00000012  00000-0  10232-4 0  9996
2 22185  82.5955  18.0778 0007696 236.7576 134.5033 12.61602938544830
Epoch: 2026-05-09T23:45Z
TLE epoch observation values (Epoch: 2026-05-09T23:45:39.663Z)
Latitude
11.18357°
Longitude
155.32801°
Altitude
1,422.523 km
Speed
7.149 km/s
True Right ascension
01h 18m 10s
True Declination
11° 07' 26"
Sunlit
Object was in daylight at epoch
Visualization orbit readout
Latitude
Unknown
Longitude
Unknown
Altitude
Unknown
Speed
Unknown
Apparent Right ascension
Unknown
Apparent Declination
Unknown
Sunlit
N/A
Visualization observer readout
Local Sidereal Time
12:44:03
Azimuth
Unknown
Elevation
Unknown
Doppler factor
Unknown
Orbital elements
Apogee altitude
1,419.653 km
Perigee altitude
1,407.66 km
Semi-major axis
7,791.793 km
Eccentricity
0.00077
Inclination
82.5955°
RAAN
18.0778°
Arg. of periapsis
236.7576°
True anomaly
134.56616°
Mean anomaly
134.5033°
Eccentric anomaly
134.53473°
Mean motion
3.15564 °/min
Orbital period
114.08 mins
BSTAR
0.000010232
Loading maneuver chart data...
Computing Atmospheric mass density...
Loading historical data...
Loading historical data...
Loading historical data...
Loading historical data...
Loading historical data...
Loading historical data...
Loading historical data...

Documentation

Showing up to 5 results
|